SCP
0 0 0 0 0 0 0 0 0 0 0 0 0 0 0 0 0 0 0 0 0 0 0 0 0 0 0 0 0 0 0 0 0 0 0 0 0 0 0 0 0 0 0 0
0 0 0 0 0 0 0 0 0 0 0 0 0 0 0 0 0 0 0 0 0 0 0 0 0 0 0 0 0 0 0 0 0 0 0 0 0 0 0 0 0 0 0 0
0 0 0 0 0 0 0 0 0 0 0 0 0 0 0 0 0 0 0 0 0 0 0 0 0 0 0 0 0 0 0 0 0 0 0 0 0 0 0 0 0 0 0 0
0 0 0 0 0 0 0 0 0 0 0 0 0 0 0 0 0 0 0 0 0 0 0 0 0 0 0 0 0 0 0 0 0 0 0 0 0 0 0 0 0 0 0 0
0 0 0 0 0 0 0 0 0 0 0 0 0 0 0 0 0 0 0 0 0 0 0 0 0 0 0 0 0 0 0 0 0 0 0 0 0 0 0 0 0 0 0 0
0 0 0 0 0 0 0 0 0 0 0 0 0 0 0 0 0 0 0 0 0 0 0 0 0 0 0 0 0 0 0 0 0 0 0 0 0 0 0 0 0 0 0 0
0 0 0 0 0 0 0 0 0 0 0 0 0 0 0 0 0 0 0 0 0 0 0 0 0 0 0 0 0 0 0 0 0 0 0 0 0 0 0 0 0 0 0 0
0 0 0 0 0 0 0 0 0 0 0 0 0 0 0 0 0 0 0 0 0 0 0 0 0 0 0 0 0 0 0 0 0 0 0 0 0 0 0 0 0 0 0 0
0 0 0 0 0 0 0 0 0 0 0 0 0 0 0 0 0 0 0 0 0 0 0 0 0 0 0 0 0 0 0 0 0 0 0 0 0 0 0 0 0 0 0 0
0 0 0 0 0 0 0 0 0 0 0 0 0 0 0 0 0 0 0 0 0 0 0 0 0 0 0 0 0 0 0 0 0 0 0 0 0 0 0 0 0 0 0 0
0 0 0 0 0 0 0 0 0 0 0 0 0 0 0 0 0 0 0 0 0 0 0 0 0 0 0 0 0 0 0 0 0 0 0 0 0 0 0 0 0 0 0 0
0 0 0 0 0 0 0 0 0 0 0 0 0 0 0 0 0 0 0 0 0 0 0 0 0 0 0 0 0 0 0 0 0 0 0 0 0 0 0 0 0 0 0 0
0 0 0 0 0 0 0 0 0 0 0 0 0 0 0 0 0 0 0 0 0 0 0 0 0 0 0 0 0 0 0 0 0 0 0 0 0 0 0 0 0 0 0 0
0 0 0 0 0 0 0 0 0 0 0 0 0 0 0 0 0 0 0 0 0 0 0 0 0 0 0 0 0 0 0 0 0 0 0 0 0 0 0 0 0 0 0 0
0 0 0 0 0 0 0 0 0 0 0 0 0 0 0 0 0 0 0 0 0 0 0 0 0 0 0 0 0 0 0 0 0 0 0 0 0 0 0 0 0 0 0 0
0 0 0 0 0 0 0 0 0 0 0 0 0 0 0 0 0 0 0 0 0 0 0 0 0 0 0 0 0 0 0 0 0 0 0 0 0 0 0 0 0 0 0 0
0 0 0 0 0 0 0 0 0 0 0 0 0 0 0 0 0 0 0 0 0 0 0 0 0 0 0 0 0 0 0 0 0 0 0 0 0 0 0 0 0 0 0 0
0 0 0 0 0 0 0 0 0 0 0 0 0 0 0 0 0 0 0 0 0 0 0 0 0 0 0 0 0 0 0 0 0 0 0 0 0 0 0 0 0 0 0 0
0 0 0 0 0 0 0 0 0 0 0 0 0 0 0 0 0 0 0 0 0 0 0 0 0 0 0 0 0 0 0 0 0 0 0 0 0 0 0 0 0 0 0 0
0 0 0 0 0 0 0 0 0 0 0 0 0 0 0 0 0 0 0 0 0 0 0 0 0 0 0 0 0 0 0 0 0 0 0 0 0 0 0 0 0 0 0 0
0 0 0 0 0 0 0 0 0 0 0 0 0 0 0 0 0 0 0 0 0 0 0 0 0 0 0 0 0 0 0 0 0 0 0 0 0 0 0 0 0 0 0 0
0 0 0 0 0 0 0 0 0 0 0 0 0 0 0 0 0 0 0 0 0 0 0 0 0 0 0 0 0 0 0 0 0 0 0 0 0 0 0 0 0 0 0 0
0 0 0 0 0 0 0 0 0 0 0 0 0 0 0 0 0 0 0 0 0 0 0 0 0 0 0 0 0 0 0 0 0 0 0 0 0 0 0 0 0 0 0 0
0 0 0 0 0 0 0 0 0 0 0 0 0 0 0 0 0 0 0 0 0 0 0 0 0 0 0 0 0 0 0 0 0 0 0 0 0 0 0 0 0 0 0 0
0 0 0 0 0 0 0 0 0 0 0 0 0 0 0 0 0 0 0 0 0 0 0 0 0 0 0 0 0 0 0 0 0 0 0 0 0 0 0 0 0 0 0 0
0 0 0 0 0 0 0 0 0 0 0 0 0 0 0 0 0 0 0 0 0 0 0 0 0 0 0 0 0 0 0 0 0 0 0 0 0 0 0 0 0 0 0 0
Wind_Speed
3 4 7 12 13 8 5 5 6 7 5 3 6 8 11 9 3 1 5 7 8 9 7 9 11 11 13 16 17 17 17 15 10 6 4 4 4 5 5 6 6 4 2 1
3 7 12 6 5 4 4 5 7 7 4 3 6 8 6 5 4 5 7 7 7 6 8 11 12 13 14 15 15 16 16 15 13 7 4 3 3 4 4 6 8 9 6 4
11 7 5 6 6 6 7 7 6 6 4 4 3 7 4 2 6 9 9 8 7 7 7 8 11 12 12 14 14 13 14 15 14 12 7 6 6 5 7 9 8 10 9 8
6 6 3 5 6 7 6 7 6 4 1 4 1 5 7 2 3 6 6 6 6 6 6 7 9 11 12 11 10 12 13 14 14 12 12 13 10 8 7 5 6 9 11 11
6 4 5 7 7 8 7 2 3 2 3 2 3 4 8 2 3 4 4 4 4 4 5 6 7 8 8 8 8 9 11 14 13 13 12 11 10 6 5 6 10 10 9 11
4 2 4 6 1 4 4 4 5 4 4 4 6 6 8 3 5 7 6 5 4 4 4 5 5 6 7 7 8 8 11 12 11 12 11 11 11 10 10 10 10 8 7 8
3 3 2 3 4 2 4 5 2 3 1 7 2 4 9 3 1 10 12 8 5 4 4 4 4 5 6 7 7 8 9 10 9 10 10 10 9 9 10 8 8 8 6 6
5 5 5 5 7 7 6 8 8 6 6 5 4 7 4 3 4 8 9 7 6 5 4 4 4 4 4 5 6 7 8 8 8 8 8 8 8 6 6 6 6 6 5 5
8 6 0 2 2 8 6 5 5 6 1 3 7 5 1 3 5 6 6 6 7 6 6 5 4 4 4 4 4 5 5 6 6 6 6 6 6 6 6 6 5 4 5 5
9 5 3 1 2 2 3 7 5 5 5 6 7 6 7 9 9 8 8 8 8 7 7 6 5 4 4 3 3 3 4 4 4 4 4 4 4 4 4 4 6 6 6 6
6 7 3 1 7 8 5 4 5 5 5 7 6 9 4 12 14 14 12 10 10 10 8 7 5 5 4 3 3 2 1 1 2 2 3 3 3 4 4 4 5 5 6 7
5 6 4 6 5 4 7 9 9 7 7 6 5 9 1 6 10 11 11 11 10 9 7 6 6 5 4 4 3 3 2 2 2 1 1 2 3 3 4 4 5 5 6 6
8 7 2 5 2 2 5 5 6 4 4 6 7 9 1 2 5 7 8 8 7 7 6 6 6 6 5 5 4 4 4 4 4 3 3 3 4 4 5 5 5 6 6 7
8 7 10 12 8 6 5 5 5 6 5 6 9 8 5 5 6 7 7 7 7 7 7 7 6 6 6 6 5 5 5 5 5 4 4 5 5 5 5 6 6 6 6 7
6 7 6 4 3 4 6 7 7 8 8 9 9 10 12 8 9 8 6 6 6 6 7 7 7 6 6 6 6 6 6 5 4 4 4 5 5 5 5 5 6 6 7 7
3 5 3 2 1 1 7 11 8 10 9 10 12 17 11 5 4 4 5 6 7 6 6 7 7 6 7 7 7 6 5 4 3 3 5 4 4 4 5 6 7 8 8 8
6 8 6 4 2 4 12 12 11 9 10 10 15 14 5 4 6 6 6 6 6 5 5 6 6 7 7 7 6 5 4 2 1 3 3 4 4 5 6 8 9 9 10 11
9 7 5 4 4 11 11 1 5 8 11 10 8 6 5 6 4 4 5 6 5 5 5 6 6 6 5 4 2 2 1 0 1 2 3 3 5 6 8 9 11 11 11 12
5 9 6 5 6 11 13 6 6 8 9 7 9 7 4 3 2 2 4 5 6 7 6 7 6 5 3 3 2 2 1 1 1 2 3 4 5 6 8 10 12 12 12 13
2 4 7 7 7 12 12 3 2 4 8 6 7 7 6 7 4 7 6 6 7 7 6 5 4 3 4 3 3 2 1 1 1 2 4 4 5 5 8 11 12 11 11 14
5 4 7 8 9 12 10 4 4 6 11 5 7 8 9 10 10 7 7 7 7 7 6 5 5 4 4 4 3 2 1 0 2 3 4 5 6 7 9 10 10 11 12 13
12 10 9 7 8 15 7 8 10 11 5 5 7 9 10 10 9 8 8 8 8 7 6 5 5 4 4 4 3 2 1 1 2 3 5 6 7 8 8 8 10 10 11 13
10 12 10 13 12 6 8 11 11 7 7 8 8 9 11 10 10 10 10 10 9 8 6 5 6 5 4 4 3 2 1 2 2 4 6 7 8 7 8 8 10 9 8 9
6 5 6 6 9 7 8 9 7 7 9 10 10 10 10 11 11 11 10 9 7 6 6 5 6 6 5 4 2 2 2 2 2 5 6 7 7 7 7 7 8 8 9 10
10 8 7 8 8 5 8 12 13 11 10 9 9 9 11 12 12 11 9 8 6 5 5 5 5 5 5 3 2 2 2 2 4 5 7 7 7 7 7 8 7 10 10 12
9 11 10 11 10 9 9 12 13 13 13 13 12 12 11 11 12 10 8 6 5 5 5 5 4 4 3 2 3 3 3 3 4 5 6 5 6 6 7 8 10 17 19 24
Wind_Direction
127 114 195 205 201 199 185 201 241 257 266 263 256 264 273 288 308 85 94 89 74 60 38 27 22 22 28 30 31 30 30 24 23 26 32 40 39 28 30 27 28 28 45 126
103 232 225 205 191 211 228 248 260 275 273 241 264 273 279 334 20 69 95 89 77 63 40 34 31 31 34 34 32 34 32 29 27 23 22 41 50 38 31 28 28 25 25 31
183 221 202 179 198 202 223 219 230 247 314 322 304 298 287 52 70 66 66 72 68 67 52 36 36 34 35 36 32 37 37 36 32 29 31 31 32 28 23 18 18 17 22 25
226 247 203 197 214 187 242 226 209 217 211 285 334 284 278 196 95 75 69 63 60 54 51 47 43 41 38 31 30 39 42 42 37 38 46 51 48 39 18 9 16 19 23 23
228 216 189 210 221 182 217 194 175 185 190 266 281 242 274 173 164 145 117 99 84 69 63 55 47 47 41 32 35 38 46 46 40 43 47 54 53 43 26 24 24 21 20 22
235 239 196 200 159 165 149 76 44 55 88 253 224 198 267 229 201 160 154 142 126 107 85 70 57 54 47 38 39 41 50 48 41 44 46 49 49 42 38 30 24 17 13 15
251 246 229 150 125 88 116 104 14 321 298 245 247 216 247 318 252 159 158 157 151 137 120 100 78 64 56 48 43 42 50 47 39 43 45 44 44 42 41 31 24 19 12 9
196 243 215 187 176 171 176 156 174 209 229 271 296 240 271 12 67 116 136 149 155 155 149 131 114 94 77 65 54 50 51 49 40 42 41 39 40 39 33 28 26 21 9 358
186 231 271 182 183 148 156 190 169 143 149 267 261 269 336 95 105 131 152 165 178 180 173 160 146 128 110 89 74 66 60 51 41 39 41 40 38 36 27 17 16 12 2 355
165 200 214 181 100 17 160 148 119 148 194 244 265 247 220 181 189 186 190 195 198 193 187 176 163 149 134 120 103 81 71 61 41 33 30 30 27 25 17 11 6 358 350 348
154 173 188 167 196 190 150 164 166 169 177 185 246 259 218 184 185 191 200 202 199 197 191 181 168 157 145 136 130 115 95 65 28 16 12 8 360 359 359 353 344 339 336 337
150 146 203 232 247 218 190 187 168 183 221 206 220 261 278 188 183 187 198 206 205 196 183 172 166 162 162 168 177 186 197 209 235 258 297 310 317 324 324 315 312 315 315 314
151 141 161 319 287 221 226 211 190 174 174 204 218 256 344 129 182 199 206 211 201 184 173 167 169 177 186 195 203 210 215 221 228 229 243 265 276 280 281 282 288 293 295 297
143 158 184 205 205 184 201 201 168 156 194 223 228 246 244 222 229 235 232 216 195 183 177 177 186 196 203 208 212 218 226 225 225 225 235 251 260 263 267 274 279 281 281 284
142 193 210 215 150 170 213 220 189 196 203 215 236 239 246 224 228 235 225 201 182 181 184 189 196 206 214 222 228 229 234 233 227 231 246 257 266 272 278 283 286 285 284 285
126 163 150 245 51 215 262 252 221 223 223 230 247 260 261 246 203 204 191 176 180 187 194 199 202 208 219 226 231 234 238 239 229 244 263 278 293 302 307 308 309 307 304 301
151 140 157 225 45 25 264 240 220 220 210 206 233 249 254 220 203 190 180 177 183 190 198 203 207 216 224 227 226 227 232 239 246 268 293 316 328 327 324 324 321 316 312 308
149 143 144 137 101 234 244 138 212 229 244 227 233 248 221 213 194 187 183 184 194 197 202 212 220 227 226 217 202 194 174 188 302 312 328 350 351 339 333 329 320 315 311 306
149 143 140 155 211 268 287 255 199 201 254 226 217 224 203 161 112 268 226 193 194 204 211 219 224 218 192 169 154 134 110 49 7 360 8 13 4 344 331 320 313 312 309 304
126 138 150 159 185 229 245 234 196 125 271 243 194 195 176 147 181 244 224 203 207 215 218 218 206 179 165 152 125 121 117 67 17 13 358 353 349 330 313 307 305 303 299 295
144 175 195 196 217 247 247 209 123 176 240 224 186 189 179 190 209 216 202 211 219 222 220 200 178 170 159 134 119 131 140 88 33 13 342 329 323 308 297 293 294 295 294 294
169 174 195 175 208 245 209 152 187 216 209 187 194 196 196 212 225 221 218 223 228 226 212 182 167 159 135 122 123 152 209 16 11 344 321 307 297 292 291 285 288 288 289 292
196 191 185 193 213 227 174 194 210 193 194 201 202 208 206 217 227 229 230 231 229 218 198 171 162 156 141 128 130 181 265 339 334 316 296 287 282 275 276 279 288 290 287 288
237 183 171 221 249 235 222 231 231 206 209 211 206 210 209 219 230 233 235 232 220 204 182 162 157 166 168 149 137 183 276 313 297 287 286 285 283 284 282 281 285 287 289 289
215 184 187 217 239 243 238 229 232 230 229 233 231 225 221 223 233 234 234 227 209 189 161 156 166 174 171 163 192 232 251 262 271 276 280 286 286 284 289 286 281 286 277 278
211 194 190 216 212 201 221 225 223 226 232 232 233 239 236 226 232 232 225 209 185 166 153 157 161 166 173 197 240 248 250 247 259 279 284 287 290 289 292 296 298 296 297 299